Flag for Germany Weather past 2 weeks in Karlsruhe, Baden-Württemberg, Germany

Now
68 °F

Sunny.


Feels Like: 68 °F
Forecast: 58 / 76 °F
Wind: 3 mph from North

Location: Karlsruhe - Baden Wurttemberg

Current Time: Jul 25, 2014 at 11:11:58 AM

Latest Report: Jul 25, 2014 at 10:50 AM


Visibility: 10 mi

Pressure: 29.92 "Hg

Humidity: 69%

Dew point: 57 °F

Location of KarlsruheLocation

Historic Weather in Karlsruhe — Graph

°F

Karlsruhe temperature yesterday

Maximum temperature yesterday: 81 °F (at 2:50 PM)
Minimum temperature yesterday: 63 °F (at 5:20 AM)
Average temperature yesterday: 73 °F

Past Weeks' High & Low Weather Summary

 TemperatureHumidityPressure
High93 °F (Jul 19, 5:20 PM)94% (Jul 11, 5:20 AM)30.18 "Hg (Jul 11, 5:20 AM)
Low57 °F (Jul 10, 9:20 AM)24% (Jul 18, 4:20 PM)29.77 "Hg (Jul 10, 9:20 AM)
Average71 °F66%29.96 "Hg
* Reported Jul 10 9:20 AM — Jul 25 9:50 AM, Karlsruhe, Weather by CustomWeather, © 2014

Note: Actual official high and low records may vary slightly from our data, if they occured in-between our weather recording intervals... More about our weather records

Advertising

Karlsruhe weather history for previous 24 hours

 ConditionsComfort  
Time TempWeatherWind HumidityBarometerVisibility
9:50 AM
Jul 25
68 °FSunny.3 mph69%29.92 "Hg10 mi
9:20 AM66 °FSunny.3 mph73%29.92 "Hg10 mi
8:50 AM63 °FScattered showers. Scattered clouds.2 mph83%29.92 "HgN/A
8:20 AM64 °FSprinkles. Broken clouds.5 mph78%29.92 "HgN/A
7:58 AM64 °FSprinkles. Broken clouds.5 mph78%29.92 "HgN/A
7:20 AM63 °FScattered showers. Broken clouds.3 mph83%29.92 "HgN/A
6:50 AM61 °FClear.2 mph77%29.92 "Hg10 mi
6:20 AM61 °FClear.1 mph83%29.92 "Hg10 mi
5:50 AM61 °FClear.3 mph83%29.92 "Hg10 mi
5:20 AM61 °FClear.5 mph83%29.89 "Hg10 mi
4:50 AM63 °FClear.7 mph77%29.89 "Hg10 mi
11:20 PM
Jul 24
66 °FClear.6 mph64%29.92 "Hg10 mi
10:50 PM66 °FClear.7 mph64%29.92 "Hg10 mi
10:20 PM70 °FClear.5 mph53%29.92 "Hg10 mi
9:50 PM70 °FSunny.8 mph57%29.89 "Hg10 mi
9:20 PM72 °FSunny.5 mph61%29.89 "Hg10 mi
8:50 PM73 °FSunny.5 mph57%29.86 "Hg10 mi
8:20 PM77 °FSunny.2 mph47%29.86 "Hg10 mi
7:50 PM79 °FSunny.3 mph42%29.86 "Hg10 mi
7:20 PM79 °FSunny.6 mph37%29.86 "Hg10 mi
6:50 PM81 °FSunny.8 mph34%29.86 "Hg10 mi
6:20 PM81 °FSunny.8 mph37%29.86 "Hg10 mi
5:50 PM81 °FSunny.8 mph32%29.86 "Hg10 mi
5:20 PM81 °FPassing clouds.8 mph30%29.86 "HgN/A
4:50 PM81 °FPassing clouds.8 mph32%29.86 "HgN/A
4:20 PM81 °FPassing clouds.8 mph30%29.86 "HgN/A
3:50 PM81 °FPassing clouds.8 mph34%29.86 "HgN/A
3:20 PM81 °FPassing clouds.9 mph37%29.89 "HgN/A
2:50 PM81 °FPassing clouds.9 mph34%29.89 "HgN/A
2:20 PM79 °FSunny.9 mph48%29.89 "Hg10 mi
1:50 PM79 °FSunny.10 mph45%29.89 "Hg10 mi
1:20 PM77 °FSunny.10 mph51%29.89 "Hg10 mi
12:50 PM77 °FPassing clouds.9 mph51%29.89 "HgN/A
12:20 PM75 °FSunny.10 mph54%29.89 "Hg10 mi
11:50 AM75 °FSunny.8 mph54%29.89 "Hg10 mi
11:20 AM75 °FSunny.9 mph54%29.89 "Hg10 mi
Weather by CustomWeather, © 2014

See weather overviewHow to use our weather pages